This is the latest recevied weather packets stored in our database for station/object PE1RXF-13. If no packets are shown the sender has not sent any weather packets the latest 10 day(s).
| Time | Temp. | Humidity | Pressure | Rain* | Wind** | Luminosity | Snow |
|---|---|---|---|---|---|---|---|
| 1788674440 | 8.89° C | 99% | 1025.5 hPa | 0 mm | - | 12 W/m² | - |
| 1788673337 | 8.33° C | 99% | 1025.3 hPa | 0 mm | - | 9 W/m² | - |
| 1788672234 | 7.78° C | 99% | 1025.2 hPa | 0 mm | - | 6 W/m² | - |
| 1788671131 | 7.78° C | 99% | 1025.1 hPa | 0 mm | - | 3 W/m² | - |
| 1788670028 | 7.78° C | 99% | 1025.1 hPa | 0 mm | - | 0 W/m² | - |
| 1788668925 | 8.33° C | 99% | 1025.3 hPa | 0 mm | - | 0 W/m² | - |
| 1788667822 | 8.33° C | 99% | 1025.4 hPa | 0 mm | - | 0 W/m² | - |
| 1788666719 | 8.33° C | 99% | 1025.4 hPa | 0 mm | - | 0 W/m² | - |
| 1788665616 | 8.89° C | 99% | 1025.3 hPa | 0 mm | - | 0 W/m² | - |
| 1788664513 | 8.33° C | 99% | 1025.1 hPa | 0 mm | - | 0 W/m² | - |
| 1788663410 | 8.33° C | 99% | 1025.1 hPa | 0 mm | - | 0 W/m² | - |
| 1788662307 | 8.89° C | 99% | 1025 hPa | 0 mm | - | 0 W/m² | - |
| 1788661204 | 9.44° C | 99% | 1025 hPa | 0 mm | - | 0 W/m² | - |
| 1788660101 | 8.89° C | 99% | 1025 hPa | 0 mm | - | 0 W/m² | - |
| 1788658998 | 9.44° C | 99% | 1025 hPa | 0 mm | - | 0 W/m² | - |
| 1788657895 | 9.44° C | 99% | 1025.2 hPa | 0 mm | - | 0 W/m² | - |
| 1788656792 | 9.44° C | 99% | 1025.1 hPa | 0 mm | - | 0 W/m² | - |
| 1788655689 | 9.44° C | 99% | 1025 hPa | 0 mm | - | 0 W/m² | - |
| 1788654586 | 10° C | 99% | 1024.8 hPa | 0 mm | - | 0 W/m² | - |
| 1788653483 | 10° C | 99% | 1024.8 hPa | 0 mm | - | 0 W/m² | - |
| 1788652380 | 10° C | 99% | 1024.9 hPa | 0 mm | - | 0 W/m² | - |
| 1788651277 | 9.44° C | 99% | 1024.6 hPa | 0 mm | - | 0 W/m² | - |
| 1788650174 | 10° C | 99% | 1024.6 hPa | 0 mm | - | 0 W/m² | - |
| 1788649077 | 10° C | 99% | 1024.4 hPa | 0 mm | - | 0 W/m² | - |
| 1788647968 | 10° C | 99% | 1024.3 hPa | 0 mm | - | 0 W/m² | - |
* Rain latest hour (hover to see other rain measurements)
** Current wind speed in m/s (hover to see current wind gust speed)